This is the latest recevied weather packets stored in our database for station/object GBTWP-2. If no packets are shown the sender has not sent any weather packets the latest 10 day(s).
| Time | Temp. | Humidity | Pressure | Rain* | Wind** | Luminosity | Snow |
|---|---|---|---|---|---|---|---|
| 1788466020 | 20.56° C | 96% | 1018.2 hPa | 3.05 mm | - | 27 W/m² | - |
| 1788465719 | 20.56° C | 96% | 1017.9 hPa | 3.05 mm | - | 16 W/m² | - |
| 1788465420 | 21.11° C | 96% | 1017.5 hPa | 1.27 mm | - | 11 W/m² | - |
| 1788465119 | 21.11° C | 96% | 1018.2 hPa | 1.78 mm | - | 8 W/m² | - |
| 1788464819 | 21.11° C | 96% | 1018.5 hPa | 1.78 mm | - | 7 W/m² | - |
| 1788464519 | 21.11° C | 96% | 1018.3 hPa | 6.1 mm | - | 7 W/m² | - |
| 1788464220 | 21.11° C | 95% | 1018.1 hPa | 21.59 mm | - | 6 W/m² | - |
| 1788463919 | 21.11° C | 95% | 1018.5 hPa | 39.62 mm | - | 5 W/m² | - |
| 1788463620 | 21.11° C | 95% | 1018.8 hPa | 59.44 mm | - | 5 W/m² | - |
| 1788463319 | 21.67° C | 95% | 1018.9 hPa | 59.44 mm | - | 4 W/m² | - |
| 1788463020 | 21.67° C | 94% | 1020 hPa | 29.97 mm | - | 3 W/m² | - |
| 1788462719 | 21.67° C | 92% | 1019.1 hPa | 6.1 mm | - | 3 W/m² | - |
| 1788462420 | 22.22° C | 91% | 1018.1 hPa | 0 mm | - | 2 W/m² | - |
| 1788462119 | 22.22° C | 91% | 1018 hPa | 0 mm | - | 5 W/m² | - |
| 1788461820 | 22.22° C | 92% | 1017 hPa | 0 mm | - | 5 W/m² | - |
| 1788461520 | 22.22° C | 91% | 1017.1 hPa | 0 mm | - | 9 W/m² | - |
| 1788461220 | 22.78° C | 91% | 1016.7 hPa | 0 mm | - | 22 W/m² | - |
| 1788460921 | 22.78° C | 91% | 1016.4 hPa | 0 mm | - | 20 W/m² | - |
| 1788460620 | 22.78° C | 90% | 1016.9 hPa | 0 mm | - | 22 W/m² | - |
| 1788460320 | 22.78° C | 90% | 1017 hPa | 0 mm | - | 17 W/m² | - |
| 1788460020 | 22.78° C | 90% | 1017.3 hPa | 0 mm | - | 16 W/m² | - |
| 1788459719 | 23.33° C | 91% | 1017.9 hPa | 0 mm | - | 4 W/m² | - |
| 1788459420 | 23.33° C | 91% | 1017 hPa | 0 mm | - | 15 W/m² | - |
| 1788459119 | 23.33° C | 90% | 1016.4 hPa | 0 mm | - | 22 W/m² | - |
| 1788458820 | 23.33° C | 88% | 1016.7 hPa | 0 mm | - | 23 W/m² | - |
* Rain latest hour (hover to see other rain measurements)
** Current wind speed in m/s (hover to see current wind gust speed)